User: anonymous   Login
Location: ?p Dangia
(12.0167°N, 108.4333°E)
Time: 13:49:41
(UTC+00:00)
Language:

Cosmos 304 Rocket - Orbit

View from above orbital plane
View from above orbital plane
View from above satellite
View from above satellite

Ground track
Ground track

The orbit data is extracted from the following two-line orbital elements,

1  4139U 69091B   20218.56606391 -.00000044 +00000-0 -25484-5 0  9999
2  4139 074.0318 068.6212 0006612 232.0033 128.0538 14.62985634696258
Epoch (UTC): 05 August 2020 13:35:07
Eccentricity: 0.0006612
inclination: 74.0318°
perigee height: 679 km
apogee height: 688 km
right ascension of ascending node: 68.6212°
argument of perigee: 232.0033°
revolutions per day: 14.62985634
mean anomaly at epoch: 128.0538°
orbit number at epoch: 69625

The dashed part of the orbit path shows where the satellite is in the earth's shadow,  

DLR